Location: Newark
(43.8478°N, 19.4658°E)
Time: 21:20:43
(UTC+00:00)

Envisat - Visible Passes

Search period start: 13 December 2019 00:00
Search period end: 23 December 2019 00:00
Orbit: 764 x 766 km, 98.1° (Epoch: 13 December)

Date Brightness Start Highest point End Pass type
(mag) Time Alt. Az. Time Alt. Az. Time Alt. Az.
13 Dec 5.6 04:31:27 10° NE 04:35:21 22° E 04:39:15 10° SE visible
13 Dec 3.6 15:47:07 10° SE 15:51:37 33° ENE 15:56:09 10° N visible
13 Dec 4.8 17:26:08 10° SSW 17:30:37 31° W 17:35:09 10° NNW visible
14 Dec 3.2 05:32:49 10° NNE 05:37:56 81° ESE 05:43:00 10° S visible
14 Dec 3.3 16:48:39 10° S 16:53:42 69° WSW 16:58:47 10° NNW visible
15 Dec 4.7 04:56:20 10° NNE 05:01:03 37° E 05:05:44 10° SSE visible
15 Dec 3.0 16:12:01 10° SSE 16:16:58 56° ENE 16:21:56 10° N visible
15 Dec 5.6 17:52:50 10° SW 17:56:20 19° W 17:59:52 10° NW visible
16 Dec 5.9 04:20:37 10° NE 04:23:58 17° E 04:27:18 10° SE visible
16 Dec 3.9 15:36:13 10° ESE 15:40:26 27° ENE 15:44:40 10° N visible
16 Dec 4.4 17:14:32 10° SSW 17:19:16 39° W 17:24:03 10° NNW visible
17 Dec 3.6 05:21:34 10° NNE 05:26:38 65° ESE 05:31:40 10° S visible
17 Dec 3.0 16:37:19 10° SSE 16:42:24 86° WSW 16:47:32 10° NNW visible
17 Dec 6.3 18:21:31 10° W 18:22:10 10° W 18:22:49 10° W visible
18 Dec 5.1 04:45:15 10° NE 04:49:42 30° E 04:54:07 10° SSE visible
18 Dec 3.3 16:00:56 10° SE 16:05:43 45° ENE 16:10:34 10° N visible
18 Dec 5.3 17:40:57 10° SW 17:44:57 23° W 17:48:59 10° NW visible
19 Dec 6.1 04:10:00 10° ENE 04:12:33 14° E 04:15:06 10° ESE visible
19 Dec 3.9 17:03:01 10° S 17:07:56 50° W 17:12:53 10° NNW visible
20 Dec 4.0 05:10:22 10° NNE 05:15:20 51° E 05:20:15 10° S visible
20 Dec 2.9 16:26:04 10° SSE 16:31:08 77° ENE 16:36:14 10° N visible
20 Dec 6.0 18:08:18 10° WSW 18:10:44 13° W 18:13:09 10° WNW visible
21 Dec 5.5 04:34:14 10° NE 04:38:20 24° E 04:42:23 10° SSE visible
21 Dec 3.5 15:49:55 10° SE 15:54:31 36° ENE 15:59:09 10° N visible
21 Dec 4.9 17:29:12 10° SSW 17:33:34 29° W 17:37:59 10° NW visible
22 Dec 6.3 04:00:04 10° ENE 04:01:07 11° E 04:02:10 10° E visible
22 Dec 3.1 05:35:44 10° NNE 05:40:51 88° ESE 05:45:56 10° SSW visible
22 Dec 3.5 16:51:36 10° S 16:56:37 63° W 17:01:41 10° NNW visible
